OPS 4682 DEB, 38367

Orbit data source: Space-Track

OPS 4682 DEB, 38367 is space debris in LEO originally from a launch on Sat, 03 Apr 1965 UTC launched from the Air Force Western Test Range (AFWTR). Debris objects in space refer to the collection of defunct objects orbiting the Earth. Examples of debris include non-operational satellites, rocket bodies, and fragments generated from explosions, collisions, or faulty payload assembly.

Loading next visibility...
Identifier
38367, 1965-027BU
Orbit
LEO
Country
Flag of USUS
Related business
Manufacturer
Unknown
Mission
Spacecraft
Bus & Motor
Unknown
Mass
Unknown
Launch date (UTC)
1965-04-03 (61 years ago)
Launch vehicle
Unknown
Launch site
Air Force Western Test Range (AFWTR)
Object type
Payload
Rocket body
Debris
Shape & HBR
Unknown shape, 0.1 m
Radar Cross Section
Small (<0.1 m²)

Expand to show TLE details & history
Last TLE update: 2 days ago

TLE from 2 days ago
0 OPS 4682 DEB
1 38367U 65027BU  26102.50014370  .00000593  00000-0  20357-2 0  9994
2 38367  90.2484   9.3072 0034615 312.0313  47.7862 12.96684715300364
Epoch: 2026-04-12T12:00Z
TLE epoch observation values (Epoch: 2026-04-12T12:00:12.415Z)
Latitude
-0.00005°
Longitude
-11.44874°
Altitude
1,260.23 km
Speed
7.234 km/s
True Right ascension
00h 37m 13s
True Declination
0° 00' 00"
Sunlit
Object was in daylight at epoch
Visualization orbit readout
Latitude
Unknown
Longitude
Unknown
Altitude
Unknown
Speed
Unknown
Apparent Right ascension
Unknown
Apparent Declination
Unknown
Sunlit
N/A
Visualization observer readout
Local Sidereal Time
04:19:42
Azimuth
Unknown
Elevation
Unknown
Doppler factor
Unknown
Orbital elements
Apogee altitude
1,298.717 km
Perigee altitude
1,245.754 km
Semi-major axis
7,650.373 km
Eccentricity
0.00346
Inclination
90.2484°
RAAN
9.3072°
Arg. of periapsis
312.0313°
True anomaly
48.08084°
Mean anomaly
47.7862°
Eccentric anomaly
47.93343°
Mean motion
3.24354 °/min
Orbital period
110.99 mins
BSTAR
0.0020357
Loading maneuver chart data...
Computing Atmospheric mass density...
Loading historical data...
Loading historical data...
Loading historical data...
Loading historical data...
Loading historical data...
Loading historical data...
Loading historical data...

Documentation

Showing up to 5 results
|